Location: Zihuatanejo
(17.6330°N, 101.5500°W)
Time: 11:27:38
(UTC-05:00)

Tiangong 2 - Pass Details

Date: 25 March 2019
Orbit: 378 x 389 km, 42.8° (Epoch: 21 April)

Event Time Altitude Azimuth Distance (km) Brightness Sun altitude
Rises 20:54:55 0° 205° (SSW) 2,232 5.2 -14.3°
Reaches altitude 10° 20:57:15 10° 189° (S) 1,380 3.9 -14.9°
Enters shadow 20:59:09 21° 153° (SSE) 910 2.6 -15.3°
